Time,TemperatureF,DewpointF,PressureIn,WindDirection,WindDirectionDegrees,WindSpeedMPH,WindSpeedGustMPH,Humidity,HourlyPrecipIn,Conditions,Clouds,dailyrainin,SoftwareType,DateUTC
2013-05-24 01:00:00,55.0,-99.9,-100.00,SE,132,4.0,10.0,-999,0.00,,,0.01,,2013-05-24 06:00:00,
2013-05-24 01:32:00,55.0,-99.9,-100.00,SE,132,4.0,10.0,-999,0.00,,,0.01,,2013-05-24 06:32:00,
2013-05-24 01:42:00,55.0,-99.9,-100.00,SE,132,4.0,10.0,-999,0.00,,,0.01,,2013-05-24 06:42:00,
2013-05-24 01:52:00,55.0,-99.9,-100.00,SE,132,4.0,10.0,-999,0.00,,,0.01,,2013-05-24 06:52:00,
2013-05-24 02:00:00,54.0,-99.9,-100.00,ESE,115,3.0,7.0,-999,0.00,,,0.01,,2013-05-24 07:00:00,
2013-05-24 02:42:00,54.0,-99.9,-100.00,ESE,115,3.0,7.0,-999,0.00,,,0.01,,2013-05-24 07:42:00,
2013-05-24 02:52:00,54.0,-99.9,-100.00,ESE,115,3.0,7.0,-999,0.00,,,0.01,,2013-05-24 07:52:00,
2013-05-24 03:00:00,53.0,-99.9,-100.00,East,100,2.0,6.0,-999,0.00,,,0.01,,2013-05-24 08:00:00,
2013-05-24 03:33:00,53.0,-99.9,-100.00,East,100,2.0,6.0,-999,0.00,,,0.01,,2013-05-24 08:33:00,
2013-05-24 03:42:00,53.0,-99.9,-100.00,East,100,2.0,6.0,-999,0.00,,,0.01,,2013-05-24 08:42:00,
2013-05-24 03:52:00,53.0,-99.9,-100.00,East,100,2.0,6.0,-999,0.00,,,0.01,,2013-05-24 08:52:00,
2013-05-24 04:00:00,52.0,-99.9,-100.00,ESE,111,3.0,6.0,-999,0.00,,,0.01,,2013-05-24 09:00:00,
2013-05-24 04:33:00,52.0,-99.9,-100.00,ESE,111,3.0,6.0,-999,0.00,,,0.01,,2013-05-24 09:33:00,
2013-05-24 04:43:00,52.0,-99.9,-100.00,ESE,111,3.0,6.0,-999,0.00,,,0.01,,2013-05-24 09:43:00,
2013-05-24 04:53:00,52.0,-99.9,-100.00,ESE,111,3.0,6.0,-999,0.00,,,0.01,,2013-05-24 09:53:00,
2013-05-24 05:00:00,51.0,-99.9,-100.00,ESE,113,3.0,5.0,-999,0.00,,,0.00,,2013-05-24 10:00:00,
2013-05-24 05:33:00,51.0,-99.9,-100.00,ESE,113,3.0,5.0,-999,0.00,,,0.00,,2013-05-24 10:33:00,
2013-05-24 05:42:00,51.0,-99.9,-100.00,ESE,113,3.0,5.0,-999,0.00,,,0.00,,2013-05-24 10:42:00,
2013-05-24 05:53:00,51.0,-99.9,-100.00,ESE,113,3.0,5.0,-999,0.00,,,0.00,,2013-05-24 10:53:00,
2013-05-24 06:00:00,49.0,-99.9,-100.00,SE,136,4.0,5.0,-999,0.00,,,0.00,,2013-05-24 11:00:00,
2013-05-24 06:32:00,49.0,-99.9,-100.00,SE,136,4.0,5.0,-999,0.00,,,0.00,,2013-05-24 11:32:00,
2013-05-24 06:42:00,49.0,-99.9,-100.00,SE,136,4.0,5.0,-999,0.00,,,0.00,,2013-05-24 11:42:00,
2013-05-24 06:52:00,49.0,-99.9,-100.00,SE,136,4.0,5.0,-999,0.00,,,0.00,,2013-05-24 11:52:00,
2013-05-24 07:00:00,50.0,-99.9,-100.00,SE,126,8.0,13.0,-999,0.00,,,0.00,,2013-05-24 12:00:00,
2013-05-24 07:33:00,50.0,-99.9,-100.00,SE,126,8.0,13.0,-999,0.00,,,0.00,,2013-05-24 12:33:00,
2013-05-24 07:42:00,50.0,-99.9,-100.00,SE,126,8.0,13.0,-999,0.00,,,0.00,,2013-05-24 12:42:00,
2013-05-24 07:52:00,50.0,-99.9,-100.00,SE,126,8.0,13.0,-999,0.00,,,0.00,,2013-05-24 12:52:00,
2013-05-24 08:00:00,55.0,-99.9,-100.00,SSE,158,7.0,13.0,-999,0.00,,,0.00,,2013-05-24 13:00:00,
2013-05-24 08:42:00,55.0,-99.9,-100.00,SSE,158,7.0,13.0,-999,0.00,,,0.00,,2013-05-24 13:42:00,
2013-05-24 08:52:00,55.0,-99.9,-100.00,SSE,158,7.0,13.0,-999,0.00,,,0.00,,2013-05-24 13:52:00,
2013-05-24 09:00:00,59.0,-99.9,-100.00,SSE,156,9.0,15.0,-999,0.00,,,0.00,,2013-05-24 14:00:00,
2013-05-24 09:32:00,59.0,-99.9,-100.00,SSE,156,9.0,15.0,-999,0.00,,,0.00,,2013-05-24 14:32:00,
2013-05-24 09:42:00,59.0,-99.9,-100.00,SSE,156,9.0,15.0,-999,0.00,,,0.00,,2013-05-24 14:42:00,
2013-05-24 09:52:00,59.0,-99.9,-100.00,SSE,156,9.0,15.0,-999,0.00,,,0.00,,2013-05-24 14:52:00,
2013-05-24 10:00:00,61.0,-99.9,-100.00,South,171,7.0,16.0,-999,0.00,,,0.00,,2013-05-24 15:00:00,
2013-05-24 10:33:00,61.0,-99.9,-100.00,South,171,7.0,16.0,-999,0.00,,,0.00,,2013-05-24 15:33:00,
2013-05-24 10:43:00,61.0,-99.9,-100.00,South,171,7.0,16.0,-999,0.00,,,0.00,,2013-05-24 15:43:00,
2013-05-24 10:53:00,61.0,-99.9,-100.00,South,171,7.0,16.0,-999,0.00,,,0.00,,2013-05-24 15:53:00,
2013-05-24 11:00:00,62.0,-99.9,-100.00,SSE,151,8.0,19.0,-999,0.00,,,0.00,,2013-05-24 16:00:00,
2013-05-24 11:33:00,62.0,-99.9,-100.00,SSE,151,8.0,19.0,-999,0.00,,,0.00,,2013-05-24 16:33:00,
2013-05-24 11:42:00,62.0,-99.9,-100.00,SSE,151,8.0,19.0,-999,0.00,,,0.00,,2013-05-24 16:42:00,
2013-05-24 11:52:00,62.0,-99.9,-100.00,SSE,151,8.0,19.0,-999,0.00,,,0.00,,2013-05-24 16:52:00,
2013-05-24 12:00:00,64.0,-99.9,-100.00,SE,145,8.0,13.0,-999,0.00,,,0.00,,2013-05-24 17:00:00,
2013-05-24 12:32:00,64.0,-99.9,-100.00,SE,145,8.0,13.0,-999,0.00,,,0.00,,2013-05-24 17:32:00,
2013-05-24 12:42:00,64.0,-99.9,-100.00,SE,145,8.0,13.0,-999,0.00,,,0.00,,2013-05-24 17:42:00,
2013-05-24 12:52:00,64.0,-99.9,-100.00,SE,145,8.0,13.0,-999,0.00,,,0.00,,2013-05-24 17:52:00,
2013-05-24 13:00:00,65.0,-99.9,-100.00,SSE,157,8.0,15.0,-999,0.00,,,0.00,,2013-05-24 18:00:00,
2013-05-24 13:42:00,65.0,-99.9,-100.00,SSE,157,8.0,15.0,-999,0.00,,,0.00,,2013-05-24 18:42:00,
2013-05-24 13:52:00,65.0,-99.9,-100.00,SSE,157,8.0,15.0,-999,0.00,,,0.00,,2013-05-24 18:52:00,
2013-05-24 14:00:00,66.0,-99.9,-100.00,SSE,155,9.0,18.0,-999,0.00,,,0.00,,2013-05-24 19:00:00,
2013-05-24 14:32:00,66.0,-99.9,-100.00,SSE,155,9.0,18.0,-999,0.00,,,0.00,,2013-05-24 19:32:00,
2013-05-24 14:42:00,66.0,-99.9,-100.00,SSE,155,9.0,18.0,-999,0.00,,,0.00,,2013-05-24 19:42:00,
2013-05-24 14:52:00,66.0,-99.9,-100.00,SSE,155,9.0,18.0,-999,0.00,,,0.00,,2013-05-24 19:52:00,
2013-05-24 15:00:00,67.0,-99.9,-100.00,SSE,163,9.0,18.0,-999,0.00,,,0.00,,2013-05-24 20:00:00,
2013-05-24 15:32:00,67.0,-99.9,-100.00,SSE,163,9.0,18.0,-999,0.00,,,0.00,,2013-05-24 20:32:00,
2013-05-24 15:42:00,67.0,-99.9,-100.00,SSE,163,9.0,18.0,-999,0.00,,,0.00,,2013-05-24 20:42:00,
2013-05-24 15:52:00,67.0,-99.9,-100.00,SSE,163,9.0,18.0,-999,0.00,,,0.00,,2013-05-24 20:52:00,
2013-05-24 16:00:00,68.0,-99.9,-100.00,SSE,167,8.0,13.0,-999,0.00,,,0.00,,2013-05-24 21:00:00,
2013-05-24 16:33:00,68.0,-99.9,-100.00,SSE,167,8.0,13.0,-999,0.00,,,0.00,,2013-05-24 21:33:00,
2013-05-24 16:43:00,68.0,-99.9,-100.00,SSE,167,8.0,13.0,-999,0.00,,,0.00,,2013-05-24 21:43:00,
2013-05-24 16:53:00,68.0,-99.9,-100.00,SSE,167,8.0,13.0,-999,0.00,,,0.00,,2013-05-24 21:53:00,
2013-05-24 17:00:00,68.0,-99.9,-100.00,SSE,154,11.0,21.0,-999,0.00,,,0.00,,2013-05-24 22:00:00,
2013-05-24 17:33:00,68.0,-99.9,-100.00,SSE,154,11.0,21.0,-999,0.00,,,0.00,,2013-05-24 22:33:00,
2013-05-24 17:42:00,68.0,-99.9,-100.00,SSE,154,11.0,21.0,-999,0.00,,,0.00,,2013-05-24 22:42:00,
2013-05-24 17:52:00,68.0,-99.9,-100.00,SSE,154,11.0,21.0,-999,0.00,,,0.00,,2013-05-24 22:52:00,
2013-05-24 18:00:00,68.0,-99.9,-100.00,SSE,167,7.0,15.0,-999,0.00,,,0.00,,2013-05-24 23:00:00,
2013-05-24 18:32:00,68.0,-99.9,-100.00,SSE,167,7.0,15.0,-999,0.00,,,0.00,,2013-05-24 23:32:00,
2013-05-24 18:42:00,68.0,-99.9,-100.00,SSE,167,7.0,15.0,-999,0.00,,,0.00,,2013-05-24 23:42:00,
2013-05-24 18:52:00,68.0,-99.9,-100.00,SSE,167,7.0,15.0,-999,0.00,,,0.00,,2013-05-24 23:52:00,
2013-05-24 19:00:00,67.0,-99.9,-100.00,SSE,158,8.0,16.0,-999,0.00,,,0.00,,2013-05-25 00:00:00,
2013-05-24 19:32:00,67.0,-99.9,-100.00,SSE,158,8.0,16.0,-999,0.00,,,0.00,,2013-05-25 00:32:00,
2013-05-24 19:42:00,67.0,-99.9,-100.00,SSE,158,8.0,16.0,-999,0.00,,,0.00,,2013-05-25 00:42:00,
2013-05-24 19:52:00,67.0,-99.9,-100.00,SSE,158,8.0,16.0,-999,0.00,,,0.00,,2013-05-25 00:52:00,
2013-05-24 20:00:00,65.0,-99.9,-100.00,SSE,155,9.0,14.0,-999,0.00,,,0.00,,2013-05-25 01:00:00,
2013-05-24 20:33:00,65.0,-99.9,-100.00,SSE,155,9.0,14.0,-999,0.00,,,0.00,,2013-05-25 01:33:00,
2013-05-24 20:42:00,65.0,-99.9,-100.00,SSE,155,9.0,14.0,-999,0.00,,,0.00,,2013-05-25 01:42:00,
2013-05-24 20:52:00,65.0,-99.9,-100.00,SSE,155,9.0,14.0,-999,0.00,,,0.00,,2013-05-25 01:52:00,
2013-05-24 21:00:00,64.0,-99.9,-100.00,SSE,149,7.0,12.0,-999,0.00,,,0.00,,2013-05-25 02:00:00,
2013-05-24 21:32:00,64.0,-99.9,-100.00,SSE,149,7.0,12.0,-999,0.00,,,0.00,,2013-05-25 02:32:00,
2013-05-24 21:42:00,64.0,-99.9,-100.00,SSE,149,7.0,12.0,-999,0.00,,,0.00,,2013-05-25 02:42:00,
2013-05-24 21:52:00,64.0,-99.9,-100.00,SSE,149,7.0,12.0,-999,0.00,,,0.00,,2013-05-25 02:52:00,
2013-05-24 22:00:00,61.0,-99.9,-100.00,SE,141,10.0,19.0,-999,0.00,,,0.00,,2013-05-25 03:00:00,
2013-05-24 22:33:00,61.0,-99.9,-100.00,SE,141,10.0,19.0,-999,0.00,,,0.00,,2013-05-25 03:33:00,
2013-05-24 22:43:00,61.0,-99.9,-100.00,SE,141,10.0,19.0,-999,0.00,,,0.00,,2013-05-25 03:43:00,
2013-05-24 22:53:00,61.0,-99.9,-100.00,SE,141,10.0,19.0,-999,0.00,,,0.00,,2013-05-25 03:53:00,
2013-05-24 23:00:00,60.0,-99.9,-100.00,SSE,149,8.0,13.0,-999,0.00,,,-99.99,,2013-05-25 04:00:00,
2013-05-24 23:43:00,60.0,-99.9,-100.00,SSE,149,8.0,13.0,-999,0.00,,,-99.99,,2013-05-25 04:43:00,
2013-05-24 23:53:00,60.0,-99.9,-100.00,SSE,149,8.0,13.0,-999,0.00,,,-99.99,,2013-05-25 04:53:00,